Location: Columbia
(38.9520°N, 92.3340°W)
Time: 06:04:55
(UTC-05:00)

Daily predictions for brighter satellites

Satellite Brightness Start Highest point End
(mag) Time Altitude Azimuth Time Altitude Azimuth Time Altitude Azimuth
Meteor 2-21 Rocket 4.4 18:41:05 10° S 18:47:09 77° E 18:53:13 10° N
Cosmos 1484 Rocket 2.9 18:45:57 10° S 18:49:41 78° W 18:53:25 10° NNW
Landsat 4 3.8 18:46:29 10° NNE 18:50:13 84° WNW 18:53:55 10° SSW
CZ-2C R/B 3.7 18:45:52 10° NNE 18:50:25 89° WNW 18:54:52 10° SSW
Atlas Centaur 2 3.1 18:47:47 10° WSW 18:51:42 30° S 18:56:29 10° ESE
Ariane Rocket 3.7 18:47:21 10° S 18:52:21 61° WSW 18:57:25 10° NNW
ASTRO E2 4.3 18:50:09 10° SW 18:53:31 26° S 18:56:53 10° ESE
ERS-2 2.1 18:49:55 10° SSE 18:53:35 86° E 18:57:19 10° NNW
Cosmos 921 Rocket 4.2 18:51:32 10° NNE 18:55:06 23° ENE 18:58:36 10° ESE
Cosmos 2219 Rocket 4.0 18:53:19 10° NNE 18:55:25 12° NE 18:57:32 10° ENE
Cosmos 1500 Rocket 4.0 18:53:46 10° N 18:57:50 38° ENE 19:01:50 10° SSE
Cosmos 1703 3.8 18:54:35 10° N 18:58:15 37° ENE 19:01:52 10° SSE
Meteor 1-28 Rocket 3.6 18:59:20 10° N 19:03:07 69° WNW 19:06:51 10° SSW
Abrixas rocket 4.2 19:01:03 10° WNW 19:03:40 21° NNW 19:06:18 10° NE
Cosmos 2366 rocket 4.0 18:57:35 10° S 19:03:48 80° E 19:10:01 10° N
SPOT 3 Rocket 3.7 18:59:49 10° SE 19:04:49 51° ENE 19:09:52 10° N
CZ-4 R/B 4.4 19:01:47 10° SSE 19:05:54 80° ENE 19:10:03 10° N
Cosmos 2056 Rocket 3.7 19:00:40 10° NNW 19:06:00 81° WSW 19:11:12 10° SSE
Cosmos 1726 3.8 19:07:13 10° ESE 19:09:12 14° E 19:11:10 10° NE
SL-16 R/B 2.8 19:03:53 10° NNW 19:09:29 63° WSW 19:15:04 10° S
Cosmos 1908 3.8 19:09:22 10° SSE 19:12:57 35° E 19:16:33 10° NNE
MOS 1 4.3 19:08:52 10° SSE 19:14:31 79° ENE 19:20:13 10° NNW
USA 267 4.2 19:09:22 10° ENE 19:14:45 27° SE 19:20:06 10° S
Cosmos 1400 Rocket 2.7 19:10:43 10° N 19:14:46 78° E 19:18:43 10° SSE
CZ-4 R/B 2.8 19:13:11 10° S 19:17:13 44° W 19:21:14 10° NNW
GENESIS II 4.2 19:14:47 10° SSW 19:18:44 74° ESE 19:22:42 10° NE
Cosmos 2098 Rocket 4.1 19:15:50 10° SE 19:19:26 27° E 19:23:48 10° NNE
COSMO-SKYMED 1 2.6 19:16:05 10° NNE 19:20:26 89° NW 19:24:47 10° SSW
Cosmos 44 3.8 19:17:33 10° S 19:21:23 30° ESE 19:24:23 14° ENE
H-2A R/B 4.0 19:19:23 12° ESE 19:21:52 22° ENE 19:24:54 10° NNE
METEOR-M 4.1 19:16:37 10° SSE 19:21:57 87° ENE 19:27:20 10° NNW
Cosmos 1452 Rocket 3.6 19:18:33 10° N 19:23:44 57° ENE 19:28:53 10° SSE
Cosmos 2237 Rocket 4.0 19:24:28 10° NNE 19:26:35 12° NE 19:27:16 12° NE
Sich 1 4.5 19:26:07 10° NNE 19:28:51 18° ENE 19:28:51 18° ENE
NOAA 12 4.0 19:25:47 10° SSE 19:31:01 70° ENE 19:36:19 10° N
SL-24 R/B - RUBIN 2 3.6 19:28:00 10° NNW 19:32:50 65° ENE 19:37:00 11° SE
Cosmos 1805 Rocket 4.2 19:32:19 10° NNE 19:36:15 32° ENE 19:39:28 14° SE
Aureole 2 Rocket 4.5 19:34:26 10° NNE 19:36:10 16° NE 19:36:10 16° NE
FREGAT/IRIS 3.5 19:37:46 29° NE 19:37:46 29° NE 19:40:01 10° N
Cosmos 44 Rocket 3.4 19:36:08 10° S 19:40:39 48° ESE 19:43:51 18° NE
Cosmos 1626 3.5 19:37:07 10° NNW 19:40:39 42° W 19:44:11 10° SSW
Cosmos 1821 Rocket 4.1 19:34:57 10° SSE 19:40:50 50° E 19:46:49 10° NNE
YAOGAN 1 4.4 19:39:08 10° SSW 19:43:02 34° W 19:47:00 10° NNW
DELTA 2 R/B (1) 3.6 19:39:28 10° W 19:45:04 86° SSW 19:48:17 27° ESE
Cosmos 1934 Rocket 4.3 19:40:36 10° SSE 19:46:29 42° E 19:52:25 10° NNE
Centaur AC-112 4.4 19:42:54 10° WSW 19:47:47 18° SSW 19:49:56 11° SSE
Cosmos 2239 Rocket 4.4 19:42:38 10° S 19:48:37 58° E 19:54:37 10° NNE
Abrixas 4.4 19:47:24 10° SSW 19:47:48 13° S 19:47:48 13° S
Cosmos 2360 Rocket 2.4 19:45:18 10° NNW 19:50:57 72° WSW 19:56:34 10° SSE
COSMOS 2428 2.9 19:45:32 10° NNW 19:51:03 50° ENE 19:54:29 22° SE
SL-8 R/B 4.4 19:48:32 10° W 19:53:14 50° NNW 19:56:05 22° NE
Aureole 2 4.2 19:50:41 10° NNW 19:53:47 88° WSW 19:56:03 20° SSE
Iridium 4 Rocket 3.6 19:48:31 10° S 19:53:57 79° E 19:59:47 10° N
Cosmos 2333 Rocket 3.1 19:49:20 10° N 19:54:17 29° ENE 19:54:58 28° ENE
Cosmos 1315 Rocket 3.3 19:54:12 10° NNW 19:58:14 64° W 20:02:17 10° S
Cosmos 2219 3.2 19:53:02 10° S 19:58:41 62° ESE 20:04:21 10° NNE
Cosmos 1048 Rocket 3.8 19:56:34 10° SSW 20:01:43 84° ESE 20:06:51 10° NNE
FengYun 1-2 T 4.1 20:01:15 10° SSE 20:06:45 76° ENE 20:12:14 10° N
BREEZE M DEB (TANK) 3.7 20:05:06 10° NW 20:07:40 20° N 20:07:40 20° N
Cosmos 1420 Rocket 4.1 20:03:48 10° NNW 20:09:07 76° WSW 20:14:23 10° S
Thor Agena Rocket 3.6 20:04:43 10° NNE 20:09:50 79° WNW 20:14:51 10° SSW
Envisat 4.3 20:12:32 25° NE 20:12:32 25° NE 20:15:13 10° N
Cosmos 2123 Rocket 4.1 20:05:01 10° N 20:11:06 52° E 20:14:34 25° SE
APEX 3.5 20:11:00 10° SW 20:14:12 46° WNW 20:14:29 44° NW
Cosmos 1605 Rocket 4.1 20:09:14 10° SSE 20:15:02 47° E 20:20:50 10° NNE
CZ-4C R/B 1.9 20:12:00 10° SSW 20:17:06 84° ESE 20:20:08 29° NE
Delta 2 Rocket 3.7 20:15:06 10° WSW 20:18:02 43° SW 20:18:02 43° SW
RESURS DK-1 4.0 20:15:08 10° NW 20:18:51 33° WSW 20:22:33 10° S
MOS 1-B Rocket 3.9 20:19:10 48° E 20:20:01 52° ENE 20:25:48 10° N
SJ-6B 3.1 20:21:08 55° NNW 20:21:08 55° NNW 20:24:06 10° NNW
Cosmos 2221 3.9 20:18:54 10° SSW 20:22:55 38° WNW 20:27:00 10° N
CSL-04 DEB 4.4 20:24:46 71° N 20:24:46 71° N 20:28:24 10° NNW
ALOS 3.9 20:20:28 10° SSW 20:24:42 34° W 20:28:58 10° NNW
Resurs 01 Rocket 3.5 20:37:34 20° N 20:37:34 20° N 20:39:00 10° N
Atlas Centaur 2 3.5 20:35:52 10° WSW 20:40:13 27° S 20:40:43 26° S
Cosmos 2219 Rocket 2.0 20:34:41 10° NNW 20:40:12 78° NE 20:40:12 78° NE
Cosmos 1726 4.0 20:40:53 10° SW 20:44:10 30° WNW 20:47:29 10° NNW
Gbstr 26 Del rocket 3.8 20:39:42 10° NW 20:44:51 65° NNE 20:44:51 65° NNE
Meteor 2-10 4.5 20:48:20 10° SSW 20:53:16 56° WNW 20:58:17 10° N
USA 267 3.3 20:56:34 55° NNE 20:58:06 77° NW 21:04:37 10° SW
NOSS 0 Rocket 4.1 21:00:11 10° NNW 21:05:23 65° NNW 21:05:23 65° NNW
Cosmos 2237 Rocket 3.4 21:05:54 10° NNW 21:09:07 35° NNW 21:09:07 35° NNW
SL-16 R/B 4.4 21:16:06 10° N 21:17:17 16° N 21:17:17 16° N
USA 234 4.3 21:34:00 36° N 21:34:00 36° N 21:38:10 10° NW
Cosmos 2333 Rocket 3.7 21:33:18 10° NW 21:37:00 33° WNW 21:37:00 33° WNW
